Tracking 22779 objects as of 14-Apr-2021
HD Live streaming from Space Station
objects crossing your sky now

SL-3 R/B

Track SL-3 R/B now!
10-day predictions
SL-3 R/B is classified as:


NORAD ID: 4814
Int'l Code: 1970-113B
Perigee: 448.6 km
Apogee: 479.6 km
Inclination: 81.1 °
Period: 93.7 minutes
Semi major axis: 6835 km
RCS: 6.542 m2 (large)
Launch date: December 18, 1970
Source: Commonwealth of Independent States (former USSR) (CIS)
Launch site: PLESETSK MISSILE AND SPACE COMPLEX (PKMTR)

Note: This is a ROCKET BODY
aabbcc
Your satellite tracking list
Your tracking list is empty




NASA's NSSDC Master Catalog

Two Line Element Set (TLE):
1  4814U 70113B   21104.39726182  .00001409  00000-0  38614-4 0  9995
2  4814  81.1413 155.0564 0022687 316.2685  43.6756 15.36334941748772
Source of the keplerian elements: AFSPC